QPF
0.00 0.00 0.00 0.00 0.00 0.00 0.00 0.00 0.00 0.00 0.00 0.00 0.00 0.00 0.00 0.00 0.00 0.00 0.00 0.01 0.01 0.01 0.01 0.01 0.01 0.02 0.01 0.01 0.01 0.01 0.01 0.01 0.01 0.00 0.00 0.00 0.01 0.01 0.01 0.01 0.01 0.01 0.01
0.00 0.00 0.00 0.00 0.00 0.00 0.00 0.00 0.00 0.00 0.00 0.00 0.00 0.00 0.00 0.00 0.00 0.00 0.00 0.00 0.01 0.02 0.02 0.02 0.01 0.01 0.01 0.01 0.01 0.01 0.02 0.01 0.01 0.01 0.01 0.01 0.01 0.01 0.01 0.01 0.01 0.01 0.01
0.01 0.00 0.00 0.00 0.00 0.00 0.00 0.00 0.00 0.00 0.00 0.00 0.00 0.00 0.00 0.00 0.00 0.00 0.00 0.00 0.00 0.01 0.01 0.02 0.02 0.01 0.01 0.01 0.01 0.01 0.01 0.02 0.02 0.02 0.02 0.02 0.02 0.02 0.02 0.01 0.01 0.01 0.01
0.00 0.00 0.00 0.00 0.00 0.00 0.00 0.00 0.00 0.00 0.00 0.00 0.00 0.00 0.00 0.00 0.00 0.00 0.00 0.00 0.00 0.00 0.01 0.01 0.02 0.02 0.02 0.01 0.01 0.00 0.01 0.01 0.02 0.02 0.02 0.02 0.02 0.02 0.02 0.01 0.01 0.01 0.00
0.00 0.00 0.00 0.00 0.00 0.00 0.00 0.00 0.00 0.00 0.00 0.00 0.00 0.00 0.00 0.00 0.00 0.00 0.00 0.00 0.00 0.00 0.00 0.01 0.01 0.02 0.02 0.01 0.01 0.01 0.00 0.01 0.01 0.01 0.02 0.01 0.01 0.01 0.01 0.00 0.01 0.01 0.00
0.00 0.00 0.00 0.00 0.00 0.00 0.00 0.00 0.00 0.00 0.00 0.00 0.00 0.00 0.00 0.00 0.00 0.00 0.00 0.00 0.00 0.00 0.00 0.00 0.01 0.01 0.01 0.01 0.01 0.01 0.01 0.00 0.01 0.01 0.01 0.01 0.01 0.01 0.01 0.00 0.00 0.00 0.00
0.00 0.00 0.00 0.00 0.00 0.00 0.00 0.00 0.00 0.00 0.00 0.00 0.00 0.00 0.00 0.00 0.00 0.00 0.00 0.00 0.00 0.00 0.00 0.00 0.00 0.01 0.01 0.01 0.01 0.01 0.01 0.01 0.01 0.01 0.01 0.01 0.01 0.01 0.01 0.01 0.01 0.01 0.01
0.00 0.00 0.00 0.00 0.00 0.00 0.00 0.00 0.00 0.00 0.00 0.00 0.00 0.00 0.00 0.00 0.00 0.00 0.00 0.00 0.00 0.00 0.00 0.00 0.00 0.01 0.01 0.01 0.01 0.01 0.00 0.00 0.00 0.00 0.00 0.01 0.01 0.01 0.01 0.01 0.01 0.01 0.01
0.00 0.00 0.00 0.00 0.00 0.00 0.00 0.00 0.00 0.00 0.00 0.00 0.00 0.00 0.00 0.00 0.00 0.00 0.00 0.00 0.00 0.00 0.00 0.00 0.00 0.00 0.01 0.01 0.01 0.01 0.01 0.01 0.01 0.01 0.01 0.01 0.01 0.01 0.00 0.01 0.01 0.02 0.02
0.00 0.00 0.00 0.00 0.00 0.00 0.00 0.00 0.00 0.00 0.00 0.00 0.00 0.00 0.00 0.00 0.00 0.00 0.00 0.00 0.00 0.00 0.00 0.00 0.00 0.00 0.00 0.01 0.01 0.02 0.02 0.01 0.01 0.01 0.01 0.01 0.00 0.00 0.00 0.00 0.01 0.01 0.02
0.01 0.00 0.00 0.00 0.00 0.00 0.00 0.00 0.00 0.00 0.00 0.00 0.00 0.00 0.00 0.00 0.00 0.00 0.00 0.00 0.00 0.00 0.00 0.00 0.00 0.00 0.00 0.01 0.01 0.02 0.02 0.02 0.02 0.02 0.01 0.01 0.00 0.00 0.00 0.00 0.01 0.01 0.02
0.00 0.00 0.00 0.00 0.00 0.00 0.00 0.00 0.00 0.00 0.00 0.00 0.00 0.00 0.00 0.00 0.00 0.00 0.00 0.00 0.00 0.00 0.00 0.00 0.00 0.00 0.00 0.01 0.01 0.02 0.02 0.02 0.02 0.02 0.02 0.02 0.01 0.01 0.01 0.01 0.01 0.01 0.02
0.00 0.00 0.00 0.00 0.00 0.00 0.00 0.00 0.00 0.00 0.00 0.00 0.00 0.00 0.00 0.00 0.00 0.00 0.00 0.00 0.00 0.00 0.00 0.00 0.00 0.00 0.00 0.00 0.01 0.01 0.01 0.01 0.02 0.02 0.02 0.02 0.01 0.01 0.01 0.01 0.01 0.02 0.02
0.00 0.00 0.00 0.00 0.00 0.00 0.00 0.00 0.00 0.00 0.00 0.00 0.00 0.00 0.00 0.00 0.00 0.00 0.00 0.00 0.00 0.00 0.00 0.00 0.00 0.00 0.00 0.00 0.00 0.01 0.01 0.01 0.02 0.02 0.02 0.02 0.02 0.02 0.02 0.02 0.02 0.02 0.02
0.00 0.00 0.00 0.00 0.00 0.00 0.00 0.00 0.00 0.00 0.00 0.00 0.00 0.00 0.00 0.00 0.00 0.00 0.00 0.00 0.00 0.00 0.00 0.00 0.00 0.00 0.00 0.00 0.00 0.00 0.01 0.01 0.01 0.02 0.02 0.02 0.02 0.02 0.02 0.02 0.03 0.03 0.02
0.00 0.00 0.00 0.00 0.00 0.00 0.00 0.00 0.00 0.00 0.00 0.00 0.00 0.00 0.00 0.00 0.00 0.00 0.00 0.00 0.00 0.01 0.01 0.00 0.00 0.00 0.00 0.00 0.01 0.01 0.01 0.01 0.01 0.02 0.02 0.02 0.02 0.02 0.03 0.03 0.03 0.03 0.02
0.01 0.00 0.00 0.00 0.00 0.00 0.00 0.00 0.00 0.00 0.00 0.00 0.00 0.00 0.00 0.00 0.00 0.00 0.00 0.00 0.01 0.01 0.01 0.01 0.01 0.01 0.01 0.01 0.01 0.01 0.01 0.01 0.01 0.02 0.02 0.02 0.02 0.03 0.03 0.03 0.03 0.03 0.02
0.01 0.01 0.00 0.00 0.00 0.00 0.00 0.00 0.00 0.00 0.00 0.00 0.00 0.00 0.00 0.00 0.00 0.00 0.00 0.01 0.01 0.01 0.01 0.01 0.01 0.01 0.01 0.01 0.01 0.01 0.01 0.02 0.02 0.02 0.02 0.02 0.03 0.03 0.03 0.03 0.03 0.03 0.03
0.00 0.00 0.00 0.00 0.00 0.00 0.00 0.00 0.00 0.00 0.00 0.00 0.00 0.00 0.00 0.00 0.00 0.00 0.00 0.01 0.00 0.00 0.01 0.01 0.01 0.01 0.01 0.01 0.01 0.01 0.01 0.02 0.02 0.02 0.02 0.02 0.03 0.04 0.04 0.03 0.03 0.03 0.03
0.00 0.00 0.00 0.00 0.00 0.00 0.00 0.00 0.00 0.00 0.00 0.00 0.00 0.00 0.00 0.00 0.00 0.00 0.00 0.01 0.01 0.01 0.01 0.01 0.01 0.01 0.01 0.01 0.02 0.02 0.02 0.02 0.02 0.02 0.02 0.03 0.03 0.04 0.04 0.03 0.03 0.03 0.03
0.01 0.01 0.01 0.00 0.00 0.00 0.00 0.01 0.01 0.01 0.01 0.01 0.01 0.01 0.01 0.01 0.00 0.00 0.00 0.01 0.01 0.01 0.01 0.01 0.01 0.01 0.01 0.01 0.02 0.02 0.02 0.02 0.02 0.02 0.03 0.03 0.04 0.04 0.03 0.03 0.03 0.03 0.03
0.01 0.01 0.01 0.01 0.01 0.01 0.01 0.01 0.01 0.01 0.01 0.01 0.01 0.01 0.01 0.00 0.00 0.00 0.00 0.01 0.01 0.01 0.01 0.01 0.01 0.01 0.01 0.01 0.02 0.02 0.03 0.02 0.02 0.03 0.03 0.04 0.04 0.03 0.03 0.03 0.03 0.03 0.02
0.01 0.01 0.01 0.01 0.01 0.01 0.01 0.01 0.01 0.01 0.01 0.01 0.01 0.01 0.01 0.00 0.00 0.01 0.01 0.01 0.01 0.01 0.01 0.01 0.01 0.01 0.01 0.02 0.02 0.03 0.03 0.02 0.02 0.03 0.04 0.04 0.04 0.03 0.03 0.03 0.03 0.02 0.02
0.02 0.02 0.02 0.02 0.02 0.02 0.02 0.01 0.01 0.01 0.01 0.01 0.01 0.01 0.01 0.00 0.01 0.01 0.01 0.01 0.01 0.01 0.01 0.01 0.01 0.01 0.01 0.02 0.02 0.02 0.02 0.03 0.03 0.03 0.04 0.04 0.03 0.03 0.03 0.03 0.02 0.02 0.02
0.02 0.02 0.02 0.02 0.02 0.02 0.02 0.01 0.01 0.01 0.01 0.01 0.01 0.01 0.01 0.01 0.01 0.01 0.01 0.01 0.01 0.01 0.01 0.01 0.01 0.01 0.01 0.01 0.02 0.02 0.02 0.03 0.03 0.03 0.03 0.03 0.03 0.03 0.02 0.02 0.02 0.02 0.01
0.02 0.02 0.02 0.01 0.01 0.01 0.01 0.01 0.01 0.01 0.01 0.01 0.01 0.01 0.01 0.01 0.01 0.01 0.01 0.01 0.01 0.01 0.01 0.01 0.01 0.01 0.01 0.01 0.01 0.02 0.02 0.02 0.02 0.03 0.03 0.03 0.02 0.02 0.02 0.02 0.01 0.01 0.01
MSLP
1017.78 1018.26 1018.72 1019.15 1019.52 1019.81 1020.03 1020.19 1020.32 1020.44 1020.57 1020.73 1020.92 1021.12 1021.33 1021.53 1021.70 1021.83 1021.93 1022.01 1022.08 1022.14 1022.22 1022.31 1022.42 1022.54 1022.65 1022.75 1022.83 1022.87 1022.89 1022.87 1022.84 1022.79 1022.72 1022.63 1022.53 1022.41 1022.26 1022.09 1021.89 1021.67 1021.44
1017.64 1018.08 1018.50 1018.89 1019.22 1019.48 1019.68 1019.84 1019.96 1020.08 1020.21 1020.37 1020.56 1020.76 1020.96 1021.16 1021.32 1021.46 1021.56 1021.64 1021.69 1021.75 1021.81 1021.89 1021.97 1022.07 1022.16 1022.25 1022.33 1022.38 1022.42 1022.44 1022.45 1022.43 1022.40 1022.35 1022.27 1022.17 1022.03 1021.86 1021.65 1021.43 1021.19
1017.56 1017.96 1018.33 1018.66 1018.94 1019.16 1019.34 1019.47 1019.59 1019.71 1019.84 1020.00 1020.18 1020.37 1020.56 1020.75 1020.91 1021.04 1021.14 1021.21 1021.27 1021.31 1021.36 1021.42 1021.48 1021.55 1021.62 1021.68 1021.75 1021.80 1021.84 1021.88 1021.91 1021.92 1021.92 1021.90 1021.86 1021.78 1021.66 1021.51 1021.32 1021.11 1020.87
1017.56 1017.90 1018.21 1018.49 1018.71 1018.89 1019.04 1019.15 1019.26 1019.38 1019.51 1019.67 1019.84 1020.02 1020.20 1020.36 1020.51 1020.62 1020.71 1020.78 1020.83 1020.86 1020.90 1020.94 1020.97 1021.01 1021.05 1021.08 1021.11 1021.14 1021.16 1021.19 1021.22 1021.24 1021.27 1021.28 1021.26 1021.22 1021.14 1021.03 1020.88 1020.69 1020.48
1017.61 1017.90 1018.16 1018.37 1018.55 1018.69 1018.81 1018.91 1019.02 1019.14 1019.27 1019.42 1019.58 1019.74 1019.90 1020.04 1020.15 1020.24 1020.32 1020.37 1020.40 1020.43 1020.45 1020.47 1020.48 1020.48 1020.48 1020.46 1020.44 1020.42 1020.41 1020.40 1020.41 1020.43 1020.45 1020.48 1020.51 1020.51 1020.48 1020.42 1020.33 1020.20 1020.03
1017.70 1017.94 1018.15 1018.31 1018.45 1018.57 1018.67 1018.78 1018.89 1019.02 1019.16 1019.30 1019.44 1019.58 1019.70 1019.80 1019.87 1019.93 1019.96 1019.99 1020.01 1020.02 1020.03 1020.02 1020.01 1019.97 1019.92 1019.85 1019.77 1019.69 1019.61 1019.55 1019.52 1019.52 1019.54 1019.58 1019.63 1019.68 1019.71 1019.72 1019.69 1019.63 1019.52
1017.79 1018.00 1018.16 1018.30 1018.42 1018.53 1018.64 1018.76 1018.88 1019.02 1019.16 1019.29 1019.42 1019.51 1019.59 1019.63 1019.65 1019.66 1019.65 1019.64 1019.63 1019.62 1019.61 1019.59 1019.54 1019.47 1019.37 1019.25 1019.11 1018.96 1018.81 1018.69 1018.61 1018.57 1018.57 1018.62 1018.69 1018.78 1018.87 1018.94 1018.99 1019.00 1018.97
1017.86 1018.05 1018.20 1018.32 1018.44 1018.56 1018.69 1018.83 1018.97 1019.12 1019.26 1019.38 1019.47 1019.52 1019.53 1019.51 1019.46 1019.41 1019.35 1019.29 1019.25 1019.22 1019.18 1019.14 1019.07 1018.97 1018.83 1018.66 1018.46 1018.25 1018.05 1017.87 1017.74 1017.66 1017.64 1017.68 1017.76 1017.88 1018.01 1018.14 1018.24 1018.32 1018.36
1017.92 1018.09 1018.23 1018.37 1018.50 1018.64 1018.79 1018.95 1019.12 1019.27 1019.40 1019.49 1019.54 1019.53 1019.47 1019.38 1019.26 1019.14 1019.02 1018.92 1018.84 1018.78 1018.73 1018.66 1018.58 1018.46 1018.30 1018.09 1017.85 1017.60 1017.34 1017.12 1016.94 1016.82 1016.77 1016.80 1016.88 1017.01 1017.16 1017.33 1017.48 1017.61 1017.70
1017.95 1018.12 1018.28 1018.43 1018.58 1018.74 1018.92 1019.09 1019.26 1019.41 1019.52 1019.57 1019.56 1019.49 1019.37 1019.20 1019.01 1018.82 1018.65 1018.50 1018.39 1018.31 1018.24 1018.16 1018.07 1017.94 1017.77 1017.55 1017.28 1017.00 1016.72 1016.45 1016.24 1016.09 1016.01 1016.01 1016.08 1016.20 1016.35 1016.52 1016.69 1016.84 1016.97
1017.99 1018.17 1018.34 1018.50 1018.67 1018.85 1019.03 1019.20 1019.36 1019.49 1019.56 1019.57 1019.50 1019.37 1019.18 1018.94 1018.69 1018.44 1018.22 1018.04 1017.90 1017.80 1017.72 1017.65 1017.56 1017.43 1017.25 1017.03 1016.76 1016.47 1016.17 1015.88 1015.64 1015.46 1015.35 1015.31 1015.34 1015.43 1015.56 1015.71 1015.87 1016.03 1016.18
1018.06 1018.24 1018.41 1018.59 1018.76 1018.93 1019.10 1019.26 1019.39 1019.48 1019.50 1019.45 1019.33 1019.13 1018.88 1018.60 1018.30 1018.01 1017.76 1017.55 1017.40 1017.29 1017.20 1017.13 1017.04 1016.92 1016.76 1016.54 1016.28 1015.99 1015.68 1015.39 1015.12 1014.91 1014.76 1014.68 1014.66 1014.69 1014.77 1014.88 1015.01 1015.16 1015.30
1018.16 1018.34 1018.51 1018.68 1018.84 1018.99 1019.13 1019.25 1019.33 1019.36 1019.33 1019.22 1019.04 1018.80 1018.50 1018.18 1017.85 1017.54 1017.27 1017.05 1016.89 1016.78 1016.69 1016.62 1016.54 1016.43 1016.28 1016.07 1015.82 1015.54 1015.24 1014.93 1014.65 1014.41 1014.21 1014.08 1013.99 1013.96 1013.97 1014.03 1014.11 1014.23 1014.36
1018.31 1018.47 1018.63 1018.77 1018.90 1019.01 1019.10 1019.16 1019.18 1019.14 1019.05 1018.88 1018.66 1018.37 1018.05 1017.71 1017.37 1017.05 1016.78 1016.56 1016.40 1016.29 1016.20 1016.13 1016.06 1015.95 1015.81 1015.62 1015.38 1015.11 1014.80 1014.49 1014.19 1013.91 1013.67 1013.47 1013.31 1013.20 1013.15 1013.13 1013.17 1013.25 1013.38
1018.46 1018.61 1018.73 1018.84 1018.92 1018.97 1019.00 1018.99 1018.94 1018.84 1018.69 1018.47 1018.20 1017.89 1017.56 1017.21 1016.87 1016.56 1016.30 1016.08 1015.92 1015.81 1015.72 1015.65 1015.57 1015.48 1015.34 1015.16 1014.93 1014.66 1014.36 1014.03 1013.71 1013.39 1013.09 1012.82 1012.60 1012.41 1012.28 1012.21 1012.20 1012.26 1012.39
1018.59 1018.71 1018.80 1018.85 1018.88 1018.88 1018.84 1018.77 1018.65 1018.48 1018.27 1018.02 1017.72 1017.39 1017.04 1016.69 1016.36 1016.06 1015.80 1015.60 1015.44 1015.32 1015.23 1015.15 1015.07 1014.97 1014.84 1014.66 1014.44 1014.17 1013.86 1013.52 1013.17 1012.81 1012.47 1012.14 1011.84 1011.60 1011.41 1011.29 1011.25 1011.29 1011.43
1018.65 1018.74 1018.79 1018.80 1018.78 1018.72 1018.62 1018.48 1018.30 1018.08 1017.83 1017.53 1017.20 1016.86 1016.51 1016.16 1015.83 1015.54 1015.28 1015.07 1014.91 1014.78 1014.68 1014.60 1014.52 1014.41 1014.28 1014.11 1013.89 1013.62 1013.31 1012.96 1012.58 1012.19 1011.80 1011.42 1011.07 1010.77 1010.54 1010.39 1010.33 1010.38 1010.54
1018.62 1018.67 1018.68 1018.66 1018.60 1018.49 1018.34 1018.15 1017.92 1017.66 1017.36 1017.03 1016.68 1016.32 1015.95 1015.60 1015.26 1014.96 1014.70 1014.48 1014.31 1014.17 1014.07 1013.97 1013.88 1013.78 1013.66 1013.49 1013.28 1013.01 1012.70 1012.34 1011.95 1011.53 1011.10 1010.68 1010.29 1009.96 1009.70 1009.54 1009.48 1009.55 1009.74
1018.48 1018.51 1018.49 1018.44 1018.34 1018.20 1018.01 1017.78 1017.51 1017.21 1016.88 1016.52 1016.14 1015.75 1015.36 1014.99 1014.64 1014.33 1014.05 1013.82 1013.63 1013.48 1013.36 1013.26 1013.18 1013.08 1012.96 1012.81 1012.61 1012.36 1012.05 1011.69 1011.28 1010.84 1010.39 1009.95 1009.54 1009.19 1008.93 1008.77 1008.74 1008.83 1009.06
1018.27 1018.27 1018.23 1018.15 1018.03 1017.86 1017.64 1017.38 1017.08 1016.75 1016.38 1015.98 1015.57 1015.16 1014.74 1014.34 1013.97 1013.63 1013.33 1013.08 1012.87 1012.71 1012.59 1012.49 1012.41 1012.32 1012.22 1012.09 1011.90 1011.66 1011.36 1011.01 1010.60 1010.16 1009.70 1009.25 1008.84 1008.49 1008.24 1008.11 1008.10 1008.24 1008.51
1018.02 1017.99 1017.93 1017.83 1017.68 1017.49 1017.25 1016.97 1016.64 1016.27 1015.87 1015.44 1015.00 1014.55 1014.10 1013.67 1013.26 1012.89 1012.57 1012.30 1012.07 1011.90 1011.78 1011.68 1011.61 1011.54 1011.46 1011.34 1011.18 1010.95 1010.67 1010.32 1009.92 1009.48 1009.03 1008.59 1008.19 1007.86 1007.64 1007.54 1007.58 1007.75 1008.06
1017.77 1017.72 1017.63 1017.51 1017.34 1017.12 1016.86 1016.54 1016.19 1015.79 1015.35 1014.89 1014.41 1013.93 1013.45 1012.99 1012.56 1012.16 1011.82 1011.52 1011.29 1011.11 1010.98 1010.89 1010.82 1010.76 1010.70 1010.60 1010.45 1010.24 1009.97 1009.64 1009.25 1008.83 1008.40 1007.98 1007.61 1007.32 1007.14 1007.08 1007.16 1007.38 1007.73
1017.56 1017.48 1017.37 1017.21 1017.02 1016.77 1016.47 1016.13 1015.74 1015.31 1014.84 1014.35 1013.85 1013.34 1012.84 1012.35 1011.90 1011.48 1011.12 1010.81 1010.57 1010.38 1010.24 1010.15 1010.08 1010.03 1009.97 1009.87 1009.73 1009.54 1009.28 1008.97 1008.60 1008.20 1007.80 1007.42 1007.09 1006.85 1006.72 1006.71 1006.84 1007.10 1007.47
1017.40 1017.28 1017.13 1016.94 1016.71 1016.42 1016.09 1015.71 1015.29 1014.83 1014.34 1013.84 1013.31 1012.79 1012.28 1011.78 1011.32 1010.90 1010.52 1010.21 1009.95 1009.75 1009.60 1009.49 1009.41 1009.34 1009.27 1009.17 1009.03 1008.84 1008.59 1008.29 1007.95 1007.59 1007.23 1006.90 1006.63 1006.45 1006.38 1006.42 1006.60 1006.89 1007.29
1017.27 1017.11 1016.92 1016.69 1016.41 1016.08 1015.71 1015.30 1014.85 1014.37 1013.87 1013.35 1012.83 1012.31 1011.80 1011.31 1010.84 1010.42 1010.04 1009.71 1009.44 1009.21 1009.04 1008.90 1008.79 1008.69 1008.59 1008.47 1008.32 1008.12 1007.89 1007.61 1007.31 1006.99 1006.69 1006.42 1006.22 1006.11 1006.10 1006.20 1006.42 1006.74 1007.15
1017.13 1016.93 1016.69 1016.41 1016.09 1015.72 1015.32 1014.88 1014.41 1013.92 1013.42 1012.91 1012.40 1011.89 1011.40 1010.92 1010.47 1010.04 1009.66 1009.31 1009.01 1008.75 1008.53 1008.35 1008.19 1008.05 1007.90 1007.75 1007.58 1007.38 1007.16 1006.91 1006.65 1006.39 1006.16 1005.97 1005.85 1005.81 1005.86 1006.02 1006.28 1006.62 1007.03
Thickness
5558 5556 5554 5553 5552 5551 5549 5548 5546 5545 5544 5542 5540 5539 5537 5536 5534 5533 5531 5529 5527 5526 5525 5523 5520 5518 5516 5514 5511 5508 5504 5502 5500 5500 5498 5497 5495 5492 5490 5487 5485 5483 5481
5551 5549 5547 5546 5545 5543 5541 5540 5538 5536 5534 5533 5531 5529 5528 5526 5525 5523 5521 5519 5517 5516 5514 5512 5510 5508 5505 5503 5500 5497 5495 5491 5488 5488 5486 5484 5482 5480 5477 5475 5472 5471 5469
5544 5541 5540 5538 5536 5534 5532 5530 5528 5526 5524 5522 5521 5519 5518 5517 5515 5513 5512 5510 5508 5506 5504 5501 5499 5497 5494 5492 5489 5487 5484 5482 5478 5476 5475 5472 5470 5468 5465 5463 5460 5458 5456
5536 5533 5531 5529 5528 5525 5523 5521 5518 5516 5514 5512 5511 5509 5508 5507 5505 5503 5501 5499 5497 5496 5494 5492 5489 5487 5484 5481 5479 5476 5474 5470 5467 5464 5462 5460 5457 5455 5451 5449 5447 5445 5443
5527 5525 5524 5521 5519 5516 5513 5511 5508 5506 5504 5502 5500 5498 5497 5496 5494 5492 5491 5489 5487 5485 5483 5481 5479 5477 5475 5472 5469 5466 5463 5460 5456 5453 5451 5448 5446 5442 5439 5436 5434 5432 5430
5519 5517 5515 5512 5508 5506 5503 5500 5497 5495 5493 5490 5489 5488 5486 5485 5485 5484 5482 5479 5477 5475 5472 5470 5468 5466 5464 5462 5460 5458 5454 5449 5446 5443 5440 5436 5434 5431 5427 5424 5421 5418 5417
5510 5507 5504 5501 5498 5495 5493 5489 5487 5484 5482 5479 5478 5476 5475 5475 5474 5474 5472 5469 5467 5464 5461 5459 5457 5455 5453 5451 5449 5447 5444 5441 5438 5433 5430 5426 5423 5420 5416 5412 5408 5405 5404
5499 5497 5494 5491 5488 5485 5481 5479 5476 5473 5471 5469 5467 5466 5464 5464 5463 5463 5461 5459 5456 5453 5451 5448 5446 5443 5441 5439 5437 5434 5431 5429 5426 5424 5420 5417 5413 5409 5405 5402 5398 5394 5392
5488 5486 5483 5480 5477 5474 5471 5468 5466 5463 5460 5458 5457 5455 5453 5453 5452 5452 5450 5447 5444 5442 5440 5437 5435 5432 5430 5428 5425 5422 5419 5417 5414 5411 5409 5406 5402 5399 5395 5390 5385 5382 5381
5478 5476 5473 5470 5466 5464 5461 5458 5455 5452 5450 5448 5446 5444 5442 5441 5441 5440 5438 5435 5432 5430 5428 5426 5424 5422 5419 5417 5414 5410 5407 5405 5402 5399 5396 5394 5390 5387 5384 5380 5375 5370 5367
5468 5465 5462 5459 5456 5453 5450 5447 5444 5441 5438 5436 5434 5432 5431 5430 5429 5428 5427 5424 5421 5419 5417 5414 5412 5411 5409 5406 5403 5399 5396 5394 5390 5386 5383 5380 5378 5375 5372 5369 5365 5360 5356
5455 5453 5450 5447 5444 5442 5438 5435 5432 5429 5426 5423 5421 5420 5419 5418 5417 5416 5415 5414 5411 5408 5406 5404 5401 5400 5398 5395 5392 5389 5385 5382 5378 5374 5371 5369 5366 5363 5360 5357 5354 5350 5348
5443 5440 5438 5435 5432 5429 5426 5422 5419 5416 5413 5411 5409 5408 5407 5406 5405 5405 5404 5402 5400 5397 5395 5393 5391 5389 5386 5383 5380 5377 5373 5369 5365 5362 5360 5358 5355 5352 5349 5346 5343 5340 5337
5430 5428 5425 5422 5420 5417 5414 5411 5408 5405 5402 5400 5398 5397 5395 5394 5393 5392 5391 5389 5388 5386 5383 5381 5379 5377 5373 5371 5368 5364 5360 5357 5354 5352 5350 5347 5344 5341 5338 5335 5332 5329 5326
5418 5415 5413 5410 5408 5405 5403 5400 5398 5396 5393 5391 5389 5386 5384 5383 5384 5382 5379 5377 5375 5373 5370 5368 5365 5362 5359 5357 5354 5351 5348 5345 5343 5341 5338 5336 5333 5331 5328 5325 5321 5318 5316
5405 5403 5401 5398 5396 5393 5390 5388 5387 5385 5384 5382 5380 5377 5376 5375 5374 5372 5370 5368 5365 5363 5359 5356 5353 5350 5348 5345 5343 5340 5338 5335 5333 5330 5328 5325 5323 5321 5318 5315 5311 5309 5307
5394 5392 5389 5386 5383 5381 5378 5375 5374 5374 5373 5371 5369 5367 5366 5364 5363 5361 5359 5357 5354 5351 5347 5345 5342 5340 5337 5335 5333 5330 5328 5326 5323 5320 5318 5315 5312 5310 5308 5306 5303 5300 5299
5382 5380 5377 5374 5372 5369 5367 5364 5362 5360 5360 5359 5358 5356 5355 5353 5352 5349 5347 5344 5341 5338 5335 5333 5332 5330 5327 5325 5323 5321 5318 5316 5313 5311 5308 5305 5303 5301 5299 5297 5295 5292 5291
5371 5368 5365 5363 5360 5358 5356 5354 5351 5349 5348 5347 5346 5344 5344 5342 5340 5338 5335 5331 5329 5327 5325 5323 5321 5320 5318 5316 5313 5311 5308 5306 5304 5302 5299 5297 5295 5292 5291 5289 5287 5286 5284
5359 5358 5355 5352 5350 5348 5346 5343 5341 5339 5338 5337 5335 5334 5331 5329 5327 5326 5323 5321 5319 5318 5316 5314 5312 5310 5308 5307 5304 5302 5300 5298 5296 5294 5292 5289 5287 5285 5284 5282 5280 5278 5276
5349 5347 5346 5343 5340 5338 5336 5333 5332 5330 5328 5327 5326 5324 5322 5320 5318 5316 5314 5312 5310 5309 5307 5305 5303 5302 5300 5298 5296 5294 5292 5290 5288 5286 5284 5282 5280 5278 5277 5275 5273 5271 5269
5339 5337 5335 5332 5330 5328 5326 5324 5322 5320 5319 5318 5316 5314 5314 5311 5309 5307 5305 5304 5302 5300 5299 5297 5295 5293 5291 5290 5288 5286 5285 5283 5281 5279 5277 5276 5274 5272 5271 5269 5267 5265 5263
5328 5326 5324 5323 5321 5320 5318 5315 5313 5311 5310 5308 5307 5305 5304 5302 5300 5298 5297 5296 5294 5292 5291 5289 5288 5287 5285 5283 5282 5280 5279 5277 5275 5273 5272 5270 5268 5266 5265 5263 5261 5259 5257
5318 5316 5314 5313 5311 5309 5308 5306 5304 5303 5301 5300 5298 5297 5295 5294 5292 5291 5289 5287 5286 5285 5284 5282 5281 5280 5279 5277 5276 5275 5273 5272 5270 5269 5267 5265 5263 5261 5259 5257 5256 5254 5251
5309 5307 5305 5303 5302 5300 5299 5297 5296 5294 5293 5292 5291 5289 5288 5286 5285 5283 5282 5280 5279 5278 5277 5276 5275 5274 5273 5272 5270 5269 5268 5267 5266 5264 5262 5260 5258 5256 5254 5252 5250 5248 5246
5300 5298 5297 5295 5293 5291 5290 5289 5288 5287 5285 5284 5283 5281 5280 5279 5278 5276 5275 5274 5273 5272 5271 5271 5270 5269 5268 5266 5266 5265 5264 5262 5261 5259 5257 5256 5253 5251 5249 5248 5245 5243 5241